Regional Weather Roundup
Issued by NWS

Home | Current Version | Previous Version | Graphics & Text | Print | Product List | Glossary On
Versions: 1 2 3 4 5 6 7 8 9 10 11 12 13 14 15 16 17 18 19 20 21 22 23 24 25 26 27 28 29 30 31 32 33 34 35 36 37 38 39 40 41 42 43 44 45 46 47 48 49 50
726
ASUS44 KLIX 180611
RWRLA
LOUISIANA WEATHER ROUNDUP
NATIONAL WEATHER SERVICE NEW ORLEANS LA
100 AM CDT SAT APR 18 2015

NOTE: "FAIR" INDICATES FEW OR NO CLOUDS BELOW 12,000 FEET WITH NO
      SIGNIFICANT WEATHER AND/OR OBSTRUCTIONS TO VISIBILITY.
      SKY/WX - SKY CONDITION AND SIGNIFICANT WEATHER.
      TMP - AIR TEMPERATURE.    DP   - DEWPOINT TEMPERATURE.
      RH  - RELATIVE HUMIDITY.  PRES - PRESSURE.
      HX  - HEAT INDEX.         WCI  - WIND CHILL INDEX.

*  THESE STATIONS ARE NOT NWS OR FAA STATIONS AND ARE NOT UNDER
   NWS QUALITY CONTROL.

LAZ040-048-061>063-065-066-069-180700-
SOUTHEAST LOUISIANA

CITY           SKY/WX    TMP DP  RH WIND       PRES   REMARKS
N.O. AUDUBON     N/A     72  71  95 MISG        N/A
6HR MIN TEMP:  71; 6HR MAX TEMP:  76;

N.O. INTL ARPT CLOUDY    74  70  87 SW3       29.92F
6HR MIN TEMP:  74; 6HR MAX TEMP:  79;

N.O. LAKEFRONT FAIR      77  71  82 E5        29.90F
6HR MIN TEMP:  77; 6HR MAX TEMP:  81;

SLIDELL        FAIR      71  71 100 CALM      29.90F
6HR MIN TEMP:  71; 6HR MAX TEMP:  79;

BATON ROUGE    LGT RAIN  72  68  87 CALM      29.95R
6HR MIN TEMP:  71; 6HR MAX TEMP:  78; 6HR PCP: TRACE;

BOOTHVILLE     FAIR      71  67  87 CALM      29.93F
6HR MIN TEMP:  70; 6HR MAX TEMP:  77;

BELLE CHASSE   FAIR      71  69  93 CALM      29.91F
6HR MIN TEMP:  70; 6HR MAX TEMP:  76;

BOGALUSA*        N/A     69  66  89 CALM      29.95F
6HR MIN TEMP:  69; 6HR MAX TEMP:  81;

GALLIANO*      FAIR      72  71  95 CALM      29.92F
6HR MIN TEMP:  72; 6HR MAX TEMP:  80;

NEW ROADS*     FAIR      72  69  92 CALM      29.95R
6HR MIN TEMP:  71; 6HR MAX TEMP:  78;

GONZALES*      LGT RAIN  71  71 100 CALM      29.93R
6HR MIN TEMP:  71; 6HR MAX TEMP:  78;

HAMMOND*       FAIR      72  66  83 CALM      29.93F
HOUMA*         MOCLDY    72  71  98 CALM      29.94R
6HR MIN TEMP:  71; 6HR MAX TEMP:  78;

PORT FOURCHON* CLOUDY    75  70  83 SE6       29.95F

$$

LAZ041-044-053-054-180700-
SOUTHWEST LOUISIANA

CITY           SKY/WX    TMP DP  RH WIND       PRES   REMARKS
LAKE CHARLES   LGT RAIN  68  65  90 CALM      29.93S
6HR MIN TEMP:  67; 6HR MAX TEMP:  78; 6HR PCP:  0.66;

LAFAYETTE      HVY RAIN  73  71  93 SW14      29.98R FOG
6HR MIN TEMP:  73; 6HR MAX TEMP:  78; 6HR PCP:  0.14;

PATTERSON      MOCLDY    72  70  94 NE5       29.93F
6HR MIN TEMP:  72; 6HR MAX TEMP:  77;

SALT POINT       N/A     73  72  96 W3        29.93R
6HR MIN TEMP:  73; 6HR MAX TEMP:  77; 6HR PCP:  0.05;

NEW IBERIA     TSTM      74  71  91 SW18G24   30.00R FOG
6HR MIN TEMP:  73; 6HR MAX TEMP:  78; 6HR PCP:  0.12;

CHENAULT AIRPK TSTM      68  66  93 CALM      29.94S
6HR MIN TEMP:  68; 6HR MAX TEMP:  78; 6HR PCP:  0.38;


$$

LAZ027-028-180700-
CENTRAL LOUISIANA

CITY           SKY/WX    TMP DP  RH WIND       PRES   REMARKS
FORT POLK      LGT RAIN  69  68  95 E5        29.93F FOG
6HR MIN TEMP:  69; 6HR MAX TEMP:  77; 6HR PCP:  0.09;

ALEXANDRIA INT CLOUDY    71  69  93 S3        29.93R
6HR MIN TEMP:  70; 6HR MAX TEMP:  76; 6HR PCP: TRACE;

ALEXANDRIA     CLOUDY    67  67 100 CALM      29.94R
6HR MIN TEMP:  67; 6HR MAX TEMP:  75;


$$

LAZ001-002-180700-
NORTHWEST LOUISIANA

CITY           SKY/WX    TMP DP  RH WIND       PRES   REMARKS
SHREVEPORT     CLOUDY    71  66  84 CALM      29.93R
6HR MIN TEMP:  69; 6HR MAX TEMP:  77;

BARKSDALE AFB  FAIR      69  65  86 E5        29.92S
6HR MIN TEMP:  69; 6HR MAX TEMP:  76;

DTN SHREVEPORT FAIR      69  63  81 SE6       29.93S
6HR MIN TEMP:  68; 6HR MAX TEMP:  77;


$$

LAZ014-016-180700-
NORTHEAST LOUISIANA

CITY           SKY/WX    TMP DP  RH WIND       PRES   REMARKS
MONROE         FAIR      68  64  87 NE6       29.95F
6HR MIN TEMP:  66; 6HR MAX TEMP:  75;

TALLULAH       FAIR      65  63  93 N6        29.95F
6HR MIN TEMP:  64; 6HR MAX TEMP:  74;


$$




USA.gov is the U.S. government's official web portal to all federal, state and local government web resources and services.